Погода в Середней

Россия / Костромская область     58°48′50″N   44°58′44″E
темп.,
°C
ветер,
м/с
пор.,
м/с
влажн.,
%
обл.,
%
осадки,
мм/ч
давл.,
гПа
погр.,
м
5 марта, пт
пт500:00−14сз239617 0.0 99823
03:00−16з22969 0.0 100020
06:00−15зюз239897 0.1 100086
09:00−11зсз379598 0.1 1001340
12:00−8сз3690100 0.1 1002753
15:00−8сз4686100 0.2 1004987
18:00−13сз2392100 0.1 100669
21:00−17ссз239563 0.1 100820
6 марта, сб
сб600:00−18зсз239817 0.0 100926
03:00−20зсз239919 0.0 101140
06:00−21зсз239934 0.0 101233
09:00−17зсз249649 0.0 1012191
12:00−12зсз249088 0.0 1012616
15:00−11зсз358794 0.1 1011824
18:00−15з2295100 0.1 101120
21:00−17юз229786 0.1 101120
7 марта, вс
вс700:00−17юз239991 0.1 101049
03:00−19ююз2310094 0.1 100856
06:00−18ю38100100 0.1 1006185
09:00−14ююв4996100 0.1 1003329
12:00−9ююв61294100 0.2 1000541
15:00−8ююв51094100 1.1 997879
18:00−8ююв51194100 0.9 994796
21:00−8юв51194100 1.7 993683
8 марта, пн
пн800:00−8вюв4995100 0.8 991602
03:00−8вюв41095100 1.7 991544
06:00−9в4995100 0.8 991449
09:00−10всв4794100 1.1 992384
12:00−9св3694100 0.4 993488
15:00−8св3694100 0.7 995559
18:00−10ссв3894100 0.4 996488
21:00−12с4994100 0.6 999408
9 марта, вт
вт900:00−13с499398 0.1 1001403
03:00−15с499499 0.1 1003399
06:00−17ссз399599 0.1 1006386
09:00−16с379399 0.1 1008412
12:00−14ссз3592100 0.1 1010502
15:00−13ссз3591100 0.1 1011600
18:00−16с2795100 0.1 1012278
21:00−20с379899 0.1 1014170